User: anonymous   Login
Location: Newark
(39.9581°N, 97.2014°W)
Time: 08:56:58
(UTC+00:00)
Language:

Vanguard 2 Rocket - Orbit

View from above orbital plane
View from above orbital plane
View from above satellite
View from above satellite

Ground track
Ground track

The orbit data is extracted from the following two-line orbital elements,

1    12U 59001B   20058.72328982 -.00000108  00000-0 -83464-4 0  9994
2    12  32.9090  18.3340 1667194 213.8137 134.4239 11.44304843509862
Epoch (UTC): 27 February 2020 17:21:32
Eccentricity: 0.1667194
inclination: 32.9090°
perigee height: 553 km
apogee height: 3327 km
right ascension of ascending node: 18.3340°
argument of perigee: 213.8137°
revolutions per day: 11.44304843
mean anomaly at epoch: 134.4239°
orbit number at epoch: 50986

The dashed part of the orbit path shows where the satellite is in the earth's shadow,  

DLR